Regional Weather Roundup
Issued by NWS Kansas City/Pleasant Hill, MO

Home | Current Version | Previous Version | Graphics & Text | Print | Product List | Glossary Off
Versions: 1 2 3 4 5 6 7 8 9 10 11 12 13 14 15 16 17 18 19 20 21 22 23 24 25 26 27 28 29 30 31 32 33 34 35 36 37 38 39 40 41 42 43 44 45 46 47 48 49 50

000
ASUS43 KEAX 200511
RWREAX

WEATHER ROUNDUP FOR EASTERN KANSAS AND NORTHWEST MISSOURI
NATIONAL WEATHER SERVICE KANSAS CITY/PLEASANT HILL MO
1200 AM CDT SUN APR 20 2014

KSZ040-057-103>105-MOZ028-029-037-043-200600-
...KANSAS CITY METROPOLITAN AREA...

CITY           SKY/WX    TMP DP  RH WIND       PRES   REMARKS
K.C. INTL      PTCLDY    57  44  62 S8        30.09S
K.C. DOWNTOWN  PTCLDY    67  45  45 S6        30.08S
LEES SUMMIT    MOCLDY    62  44  51 SE7       30.11S
OLATHE - IXD   PTCLDY    58  44  60 SE7       30.11R
OLATHE - OJC   PTCLDY    59  44  57 SE3       30.09S
LAWRENCE       PTCLDY    57  45  64 SE6       30.09R

$$

MOZ001>008-011>017-020>025-030>033-038>040-044>046-053-054-200600-
...NORTHERN AND CENTRAL MISSOURI...

CITY           SKY/WX    TMP DP  RH WIND       PRES   REMARKS
ST. JOSEPH     CLEAR     57  44  62 S3        30.08R
MOSBY          FAIR      55  46  71 E3        30.10S
WARRENSBURG    MOCLDY   N/A N/A N/A S5        30.10F
WHITEMAN AFB   MOCLDY    60  40  47 SE5       30.11S
CLINTON        MOCLDY    63  46  55 SE5       30.12S
SEDALIA        MOCLDY    64  41  42 S7        30.13S
WARSAW         NOT AVBL
MARSHALL         N/A     66  45  45 S3        30.13S
CHILLICOTHE      N/A     57  45  64 CALM      30.11F
MOBERLY        PTCLDY    55  43  62 E7        30.15S
KIRKSVILLE     PTCLDY    54  41  61 SE7       30.14S

$$

MOZ041-047>049-056>058-063>065-088>090-097-200600-
...EASTERN AND SOUTHERN MISSOURI...

CITY           SKY/WX    TMP DP  RH WIND       PRES   REMARKS
ST. LOUIS INTL MOCLDY    60  42  51 E7        30.18F
SPIRIT OF STL  CLEAR     61  41  47 CALM      30.17S
COLUMBIA       MOCLDY    62  40  44 SE8       30.14S
JEFFERSON CITY MOCLDY    59  42  53 SE8       30.13S
MEXICO         CLEAR     54  45  71 SE7       30.15S
HANNIBAL       PTCLDY    64  36  34 SE6       30.16S
ROLLA          MOCLDY    60  39  45 SE8       30.15S
LEBANON        CLEAR     59  41  51 S8        30.16R
OSAGE BEACH    PTCLDY    61  37  41 SE6       30.14F
SPRINGFIELD    MOCLDY    63  43  48 SE12      30.14R
BRANSON        CLEAR     63  46  55 S5        30.16S
NEVADA         MOCLDY    57  46  67 S5        30.12S
JOPLIN         MOCLDY    61  45  55 S7        30.12S
WEST PLAINS    CLEAR     57  39  51 CALM      30.18S
MALDEN         CLEAR     57  48  72 CALM      30.17S

$$

IAZ060-094-KSZ022-034>040-054-083-096-NEZ052-066-093-200600-
...KANSAS...SOUTHEAST NEBRASKA AND IOWA...

CITY           SKY/WX    TMP DP  RH WIND       PRES   REMARKS
TOPEKA         CLEAR     62  45  53 SE5       30.08R
MANHATTAN      CLEAR     65  46  50 S12       30.02F
EMPORIA        CLEAR     60  46  59 S13       30.06S
CHANUTE        MOCLDY    58  46  64 S8        30.10S
WICHITA        PTCLDY    63  48  58 SE13      30.04S
OMAHA          MOCLDY    70  44  39 S16       30.00R
LINCOLN        PTCLDY    68  44  42 S18       29.98S
FALLS CITY     MOCLDY    60  46  59 SE10      30.05R
LAMONI         CLEAR     62  44  51 S10       30.08F
DES MOINES     CLOUDY    66  44  45 S10       30.07F

$$




USA.gov is the U.S. government's official web portal to all federal, state and local government web resources and services.